[Date Prev][Date Next][Thread Prev][Thread Next][Date Index][Thread Index]

[jamsat-news:1529] AO-40: 最新軌道要素(続報)


皆様、

AO-40コマンドチームのDB2OS Peter Guelzow から
最新軌道要素の広報がありました。

AO-40 AMSAT Ranging G3RUH
1 26609U 00072B   01183.97146124  .00000000  00000-0  10000-4 0  0085
2 26609   5.3742 173.6903 8002332 297.5244   5.1893  1.25602992  3102
 
JAMSAT SCOPE プロジェクトチーム
武安
ja6xkq@jamsat.or.jp